Wind_Speed
13 12 11 12 13 13 14 13 13 16 17 18 19 21 22 22 23 23 24 25 26 27 28 29 31 34 36 37 38 40 41 41 42 42 41 39 38 37 36 35 33 33 33 32
9 9 11 11 11 11 11 11 12 14 15 16 18 19 20 21 21 21 22 23 24 26 28 30 32 34 35 36 38 40 41 42 41 40 38 37 36 35 34 32 31 31 32 30
7 9 9 9 9 9 8 8 9 12 13 13 14 15 15 16 17 19 20 21 23 25 28 30 32 33 34 35 37 39 40 40 39 38 37 36 35 34 34 33 32 31 31 30
7 8 8 7 8 6 7 9 9 10 10 11 11 12 17 16 17 18 20 21 23 25 26 29 31 32 33 35 36 37 37 37 38 38 38 38 38 38 37 36 34 33 33 33
6 7 7 7 8 7 8 8 9 9 9 10 12 10 18 17 18 19 21 23 24 26 28 29 31 33 34 35 36 36 37 38 39 39 40 41 41 41 40 39 38 37 36 36
5 6 7 7 7 7 8 8 9 10 9 10 13 12 18 18 19 21 22 24 25 27 29 31 32 33 35 36 37 38 39 40 41 42 43 44 44 44 43 43 42 42 41 41
4 6 7 7 7 8 8 8 9 9 9 12 16 15 17 19 20 22 23 25 26 28 30 31 33 35 36 38 39 40 41 42 43 44 45 46 46 46 46 46 46 46 46 46
3 6 7 6 7 8 8 8 8 9 10 14 17 17 17 19 21 23 25 26 28 30 32 34 35 36 38 39 41 42 43 43 44 45 46 47 47 47 48 48 49 50 50 50
4 7 7 6 7 8 8 8 9 10 12 12 16 18 18 20 23 24 26 28 30 32 33 35 37 38 40 41 42 43 43 44 45 46 47 48 48 49 49 50 51 52 53 53
5 6 8 8 8 8 9 10 10 10 11 11 15 19 20 22 24 26 28 30 32 33 36 37 39 40 41 41 42 43 44 45 46 48 48 49 49 50 51 52 53 54 55 55
5 5 7 8 8 9 9 9 10 11 11 12 14 20 21 23 25 27 29 31 34 36 38 39 40 41 41 42 43 44 45 46 47 48 49 49 50 51 52 53 54 55 56 56
4 5 6 8 8 9 9 9 10 11 13 14 16 21 21 24 26 29 31 34 36 37 39 40 41 42 43 43 44 45 46 47 48 49 49 50 50 51 52 53 53 54 55 56
4 4 6 9 11 10 10 10 11 12 14 15 17 22 24 26 29 31 33 35 37 38 40 41 42 43 43 43 45 45 46 47 48 48 49 49 50 51 52 53 53 54 54 55
4 5 5 6 10 12 11 12 12 14 15 17 19 22 26 28 31 33 35 37 39 40 41 42 43 43 43 44 44 45 46 47 48 49 49 50 51 52 53 53 53 53 53 53
5 7 8 9 11 12 12 13 14 15 17 19 21 24 27 30 32 35 37 38 40 40 42 43 44 43 43 44 44 45 46 47 48 48 50 51 52 53 53 53 53 52 52 51
6 8 10 11 11 12 13 14 15 17 18 20 23 25 28 31 34 36 38 40 41 42 43 44 44 44 44 44 44 45 46 47 48 49 50 51 52 52 52 52 51 50 49 48
8 9 10 11 12 13 14 15 17 19 20 22 25 27 30 33 36 38 40 42 43 43 44 45 45 45 44 44 45 46 47 48 49 50 50 51 51 51 50 49 47 45 44 43
9 10 11 12 13 14 16 16 18 19 21 24 26 29 31 35 38 40 42 43 44 44 45 46 46 46 45 45 46 47 48 49 50 50 51 51 50 49 47 44 42 41 40 39
10 11 12 13 15 17 17 18 19 20 22 24 27 30 33 36 38 42 44 45 46 46 47 47 47 47 46 46 47 48 48 50 50 50 50 50 49 47 43 41 38 36 35 35
12 12 14 15 16 18 19 20 21 23 24 26 30 33 36 38 40 42 44 46 47 47 47 47 47 47 47 47 47 48 49 50 50 50 49 48 47 44 41 38 35 33 31 30
13 14 14 16 17 19 20 21 22 24 27 29 32 35 38 40 42 44 46 47 48 48 48 47 48 48 48 47 47 48 49 49 49 49 48 47 44 42 38 35 32 29 27 26
14 15 16 17 18 20 21 22 23 25 27 30 33 35 38 41 43 45 47 48 48 48 47 47 48 48 48 47 47 47 48 48 48 47 47 45 42 39 36 32 28 25 23 22
15 16 17 18 19 21 21 22 24 26 28 30 33 36 39 42 44 46 47 48 49 48 47 47 48 48 47 47 47 46 47 47 47 46 45 43 40 37 33 29 25 21 18 16
16 17 18 19 20 21 22 23 24 26 28 31 34 37 40 43 45 47 48 49 49 48 48 47 47 47 47 46 46 46 46 47 46 45 43 41 38 35 31 26 23 18 14 12
17 18 18 19 20 22 22 23 25 27 29 32 35 38 41 43 46 48 49 50 50 49 48 47 47 47 46 45 45 45 46 46 46 44 42 39 36 33 29 24 21 16 13 11
17 18 19 20 21 22 23 24 26 28 30 33 36 39 42 44 46 48 50 50 50 49 47 47 47 46 45 44 44 45 46 46 46 44 41 38 35 31 27 23 20 16 13 10
Wind_Direction
256 258 257 260 264 266 271 273 277 281 285 286 285 284 285 284 284 282 279 277 276 275 274 275 277 279 280 282 284 286 287 286 287 289 287 286 286 283 284 282 279 273 272 272
248 252 256 263 269 274 277 282 285 288 289 289 289 287 286 285 283 282 281 281 280 279 280 280 281 282 284 285 284 286 287 288 288 288 289 287 288 288 285 283 280 275 269 267
220 241 254 261 271 279 286 282 281 291 297 296 297 301 296 292 290 288 287 287 285 284 284 284 285 287 287 288 290 288 287 287 288 288 289 288 288 290 286 283 279 276 272 268
236 248 253 261 271 276 278 280 287 297 305 303 306 302 299 300 297 295 294 294 293 292 290 291 291 291 291 292 292 291 289 289 289 288 288 289 290 288 286 283 279 277 274 270
247 253 255 259 268 275 268 284 296 303 302 300 304 301 297 302 299 297 297 297 297 296 294 294 295 295 296 297 295 292 291 291 290 289 288 287 287 286 285 282 279 275 272 267
266 267 262 264 273 277 287 297 305 313 313 297 295 299 293 302 300 299 298 299 299 300 299 297 297 298 298 298 297 295 294 292 290 289 288 287 286 284 282 280 278 274 271 268
297 289 277 274 280 286 296 309 314 310 304 289 294 297 293 297 299 300 301 302 302 303 303 302 301 300 300 299 298 297 295 294 292 290 288 287 285 284 281 279 276 274 272 269
284 283 286 286 287 289 294 296 287 280 285 292 301 301 302 301 303 304 304 305 306 306 306 305 304 303 302 300 299 297 296 294 293 291 289 287 285 283 281 278 276 274 272 269
283 288 297 294 297 296 295 293 293 298 300 303 302 305 306 308 310 310 309 309 310 310 309 308 307 305 303 302 301 299 298 296 294 293 291 289 287 284 281 279 277 274 272 270
296 298 300 305 306 302 299 303 305 305 303 303 303 309 314 315 314 314 315 315 315 314 312 311 309 308 307 305 304 302 300 298 297 295 294 291 289 287 284 282 279 276 273 270
312 315 311 314 316 313 312 313 313 313 313 313 307 307 318 319 319 318 318 318 317 316 315 314 313 312 310 308 307 306 304 302 300 298 296 294 292 290 287 284 282 279 275 272
318 322 317 321 323 323 322 323 324 324 322 322 319 315 323 322 322 322 321 321 320 319 318 317 317 315 313 312 311 309 308 306 304 302 299 297 295 292 290 288 286 283 279 275
325 332 337 332 329 330 331 332 330 329 328 327 324 320 325 326 325 325 324 324 323 322 321 320 319 317 316 314 313 312 311 309 308 306 304 301 299 296 293 290 288 285 281 277
333 339 337 318 318 328 333 335 334 332 331 328 327 325 327 328 328 327 327 326 325 325 323 323 322 320 318 317 316 315 314 313 311 309 307 304 302 299 296 292 289 285 281 277
337 338 337 331 329 330 333 334 333 333 333 332 331 330 330 330 330 329 329 328 328 327 326 325 325 323 321 320 319 318 317 316 315 313 310 307 305 302 298 294 290 285 281 276
337 336 336 333 331 331 333 334 333 334 335 335 334 333 333 333 332 332 332 331 331 330 328 327 326 325 323 322 321 320 320 318 317 315 313 311 308 305 301 296 291 286 280 276
333 334 335 333 333 332 333 335 335 335 335 336 336 335 335 335 334 334 335 334 333 332 331 330 329 327 326 324 323 322 322 321 320 318 316 314 311 308 304 298 294 288 281 275
326 329 330 329 329 332 332 334 334 334 334 335 336 336 337 338 337 336 336 336 335 333 333 332 331 329 328 326 326 326 325 324 323 321 319 318 315 312 308 303 296 290 283 276
322 326 328 328 329 328 331 332 333 334 334 334 336 338 339 339 339 338 338 337 336 335 334 333 333 332 331 329 329 328 328 327 325 324 323 321 319 316 312 307 300 294 287 280
320 323 325 326 326 326 328 331 333 334 335 337 339 340 340 340 340 340 339 338 337 336 336 335 335 334 333 332 331 330 330 330 329 328 326 324 322 319 316 312 305 297 290 283
318 320 322 323 323 322 326 330 333 336 337 339 340 340 340 341 341 340 340 340 339 338 337 337 337 337 335 334 333 333 333 333 332 331 330 328 327 324 321 317 310 301 293 286
318 319 320 320 320 320 326 329 333 335 336 338 339 339 340 340 341 340 340 341 341 340 339 339 338 338 338 337 336 336 336 336 336 335 334 333 331 329 326 323 316 307 299 290
316 316 316 318 318 320 324 327 331 333 335 336 338 339 340 341 341 341 341 341 342 341 341 340 340 340 340 340 339 340 340 340 339 338 338 338 337 335 331 329 324 316 306 297
316 315 315 317 319 321 323 326 330 332 334 335 337 339 340 341 342 342 342 342 343 342 342 342 342 343 343 343 343 343 343 343 343 342 342 342 341 340 339 336 332 326 317 306
314 317 317 319 320 322 324 326 329 332 333 335 337 338 339 341 342 343 343 343 344 344 344 344 344 345 345 346 346 346 347 347 346 346 345 345 345 345 344 342 341 337 328 319
314 315 317 319 321 322 324 327 329 331 333 334 336 337 338 340 342 343 344 344 345 345 345 345 346 347 347 348 348 348 349 350 350 350 349 348 348 350 351 349 347 344 337 327
Height
5870 5873 5874 5875 5875 5876 5876 5877 5877 5875 5874 5873 5872 5871 5870 5869 5868 5867 5866 5865 5864 5863 5862 5860 5858 5856 5853 5850 5847 5844 5841 5836 5833 5830 5827 5825 5822 5820 5817 5815 5813 5813 5811 5810
5869 5870 5871 5871 5872 5872 5873 5873 5873 5872 5871 5870 5868 5867 5865 5864 5863 5862 5861 5860 5858 5857 5855 5853 5851 5848 5845 5842 5839 5836 5832 5828 5824 5822 5819 5816 5814 5811 5808 5806 5806 5804 5803 5802
5868 5869 5868 5869 5869 5870 5871 5871 5871 5869 5867 5866 5865 5863 5862 5860 5858 5857 5856 5854 5852 5850 5848 5846 5843 5840 5837 5834 5830 5827 5823 5819 5816 5813 5811 5808 5806 5803 5801 5801 5799 5798 5796 5796
5866 5866 5867 5867 5868 5868 5870 5868 5867 5866 5865 5865 5864 5864 5859 5856 5855 5853 5851 5849 5847 5844 5842 5839 5836 5833 5829 5826 5822 5818 5815 5811 5808 5805 5803 5800 5798 5796 5794 5793 5791 5790 5789 5789
5865 5865 5865 5866 5866 5865 5866 5865 5864 5863 5863 5862 5861 5861 5857 5853 5851 5849 5846 5844 5841 5839 5836 5833 5829 5825 5821 5818 5813 5810 5806 5803 5800 5797 5794 5791 5789 5787 5785 5783 5782 5781 5780 5780
5864 5864 5864 5863 5863 5863 5863 5863 5862 5861 5861 5861 5858 5858 5855 5850 5847 5844 5842 5839 5836 5833 5830 5826 5822 5818 5814 5810 5805 5801 5797 5794 5791 5787 5784 5781 5779 5776 5774 5772 5771 5770 5769 5769
5864 5863 5862 5862 5862 5862 5861 5862 5863 5862 5861 5859 5855 5853 5851 5846 5843 5841 5838 5835 5831 5828 5824 5820 5815 5811 5806 5802 5797 5793 5788 5784 5780 5776 5773 5770 5767 5764 5762 5760 5758 5757 5756 5756
5864 5864 5861 5860 5860 5860 5859 5860 5861 5860 5859 5857 5851 5849 5846 5842 5839 5836 5833 5829 5826 5821 5817 5812 5808 5803 5798 5793 5788 5783 5779 5774 5769 5764 5760 5757 5753 5751 5748 5746 5744 5742 5741 5741
5863 5862 5860 5859 5858 5858 5857 5857 5856 5855 5854 5853 5850 5845 5842 5838 5835 5832 5828 5824 5819 5815 5810 5805 5800 5794 5789 5784 5778 5773 5767 5762 5757 5752 5747 5743 5739 5736 5733 5730 5728 5726 5725 5724
5860 5860 5859 5858 5857 5856 5855 5854 5853 5852 5851 5850 5847 5842 5839 5834 5831 5826 5822 5817 5813 5808 5802 5797 5791 5785 5779 5773 5767 5761 5755 5750 5744 5738 5733 5728 5724 5720 5716 5713 5711 5709 5707 5706
5859 5859 5858 5856 5855 5854 5853 5852 5850 5849 5847 5846 5844 5841 5835 5830 5826 5821 5816 5811 5806 5800 5794 5788 5781 5775 5768 5762 5755 5749 5743 5737 5731 5725 5719 5714 5708 5704 5699 5696 5692 5689 5687 5686
5858 5858 5856 5855 5853 5852 5850 5849 5848 5847 5844 5841 5839 5837 5830 5825 5821 5816 5811 5805 5799 5792 5785 5778 5771 5764 5757 5750 5744 5737 5730 5723 5717 5710 5704 5698 5692 5687 5681 5677 5673 5669 5667 5665
5857 5856 5856 5854 5853 5851 5848 5846 5844 5843 5840 5838 5835 5833 5825 5820 5815 5810 5804 5798 5791 5784 5777 5770 5762 5755 5747 5740 5732 5725 5717 5710 5703 5696 5689 5682 5676 5670 5664 5659 5654 5650 5647 5644
5855 5855 5855 5855 5851 5848 5846 5844 5842 5840 5837 5834 5831 5827 5821 5815 5810 5804 5798 5791 5783 5776 5768 5761 5753 5744 5736 5729 5721 5713 5705 5697 5689 5681 5674 5667 5660 5653 5646 5641 5635 5631 5627 5625
5854 5853 5852 5850 5848 5846 5844 5842 5839 5836 5833 5830 5826 5821 5816 5810 5804 5798 5791 5784 5776 5768 5760 5751 5743 5735 5727 5718 5710 5702 5693 5684 5676 5668 5659 5651 5643 5636 5628 5622 5616 5611 5608 5605
5853 5852 5850 5848 5846 5844 5842 5839 5836 5833 5830 5826 5822 5817 5811 5805 5798 5791 5784 5776 5768 5760 5751 5743 5734 5725 5717 5708 5699 5691 5682 5672 5663 5654 5645 5636 5627 5619 5610 5603 5597 5592 5588 5586
5851 5850 5849 5847 5844 5842 5839 5837 5833 5830 5826 5822 5818 5813 5807 5800 5793 5785 5777 5769 5760 5752 5743 5734 5725 5716 5707 5698 5689 5679 5670 5660 5650 5640 5631 5621 5611 5601 5593 5585 5578 5574 5570 5568
5850 5848 5846 5845 5843 5840 5839 5834 5830 5827 5822 5818 5813 5808 5801 5795 5786 5778 5770 5761 5753 5744 5735 5725 5716 5706 5697 5687 5678 5668 5658 5647 5637 5627 5616 5606 5595 5586 5577 5569 5562 5557 5554 5552
5847 5846 5844 5842 5840 5837 5834 5831 5827 5823 5819 5814 5809 5803 5796 5789 5782 5772 5763 5754 5745 5736 5726 5717 5707 5697 5687 5677 5667 5657 5647 5636 5625 5614 5603 5592 5582 5572 5563 5555 5548 5543 5539 5537
5845 5843 5842 5839 5837 5834 5831 5827 5823 5820 5815 5810 5803 5797 5790 5783 5777 5769 5758 5749 5739 5729 5719 5709 5699 5688 5678 5668 5658 5647 5636 5625 5614 5602 5591 5580 5569 5559 5550 5543 5536 5531 5527 5524
5842 5840 5838 5836 5833 5830 5827 5822 5819 5815 5811 5804 5798 5792 5785 5777 5770 5761 5752 5742 5732 5722 5712 5701 5691 5680 5670 5659 5649 5638 5627 5615 5604 5592 5581 5569 5558 5548 5540 5532 5525 5520 5517 5514
5839 5837 5835 5832 5830 5828 5822 5818 5815 5811 5805 5799 5794 5787 5780 5773 5764 5755 5746 5736 5726 5716 5705 5695 5684 5673 5662 5651 5640 5630 5618 5607 5595 5583 5572 5560 5550 5540 5531 5523 5517 5512 5508 5506
5836 5834 5831 5829 5827 5822 5818 5814 5810 5806 5801 5795 5789 5783 5776 5768 5759 5750 5740 5730 5720 5709 5699 5688 5677 5666 5655 5644 5633 5622 5611 5600 5588 5576 5565 5553 5543 5533 5524 5517 5510 5505 5502 5499
5832 5830 5827 5824 5821 5818 5814 5810 5806 5801 5796 5791 5785 5778 5770 5763 5754 5745 5735 5725 5714 5704 5693 5682 5671 5661 5650 5638 5627 5616 5605 5594 5582 5570 5559 5548 5537 5528 5519 5512 5506 5501 5498 5495
5828 5825 5823 5820 5817 5813 5809 5805 5801 5796 5791 5786 5780 5773 5765 5758 5749 5739 5729 5719 5709 5698 5687 5677 5666 5655 5645 5634 5622 5612 5600 5589 5577 5565 5554 5544 5534 5524 5516 5509 5503 5499 5495 5493
5823 5821 5819 5816 5812 5809 5805 5801 5796 5792 5787 5781 5775 5768 5760 5752 5743 5734 5724 5714 5703 5693 5682 5672 5661 5651 5640 5630 5619 5608 5597 5585 5574 5562 5551 5540 5531 5522 5514 5508 5502 5497 5494 5491